| time (UTC) | temp F | wind direction | speed MPH | gust MPH | rain 1hr in | rain 24hr in | rain mn in | humidity % | barometer mb |
| 20260502181121 | 48 | 19 | 2.0 | 3.0 | 0.00 | 0.00 | 0.00 | 62 | 1023.3 |
| 20260502180620 | 48 | 20 | 3.0 | 3.0 | 0.00 | 0.00 | 0.00 | 62 | 1023.3 |
| 20260502180120 | 48 | 20 | 1.0 | 3.0 | 0.00 | 0.00 | 0.00 | 62 | 1023.2 |
| 20260502164120 | 47 | 8 | 3.0 | 6.0 | 0.00 | 0.00 | 0.00 | 67 | 1023.3 |
| 20260502163120 | 47 | 10 | 3.0 | 8.0 | 0.00 | 0.00 | 0.00 | 67 | 1023.4 |
| 20260502161620 | 48 | 9 | 3.0 | 7.0 | 0.00 | 0.00 | 0.00 | 65 | 1023.7 |
| 20260502160620 | 48 | 6 | 2.0 | 5.0 | 0.00 | 0.00 | 0.00 | 66 | 1024.0 |
| 20260502160120 | 48 | 14 | 3.0 | 5.0 | 0.00 | 0.00 | 0.00 | 66 | 1024.0 |
| 20260502152120 | 49 | 14 | 5.0 | 7.0 | 0.00 | 0.00 | 0.00 | 65 | 1024.3 |
| 20260502151620 | 49 | 19 | 3.0 | 6.0 | 0.00 | 0.00 | 0.00 | 65 | 1024.4 |
| 20260502151120 | 49 | 20 | 3.0 | 6.0 | 0.00 | 0.00 | 0.00 | 65 | 1024.4 |
| 20260502150621 | 49 | 18 | 4.0 | 7.0 | 0.00 | 0.00 | 0.00 | 65 | 1024.4 |
| 20260502150120 | 49 | 18 | 3.0 | 6.0 | 0.00 | 0.00 | 0.00 | 64 | 1024.6 |
| 20260502140120 | 51 | 15 | 1.0 | 5.0 | 0.00 | 0.00 | 0.00 | 62 | 1025.0 |
| 20260502130620 | 49 | 18 | 6.0 | 12.0 | 0.00 | 0.00 | 0.00 | 63 | 1025.4 |
| 20260502130120 | 50 | 17 | 3.0 | 7.0 | 0.00 | 0.00 | 0.00 | 64 | 1025.4 |
| 20260502123120 | 50 | 17 | 5.0 | 8.0 | 0.00 | 0.00 | 0.00 | 62 | 1025.6 |
| 20260502122620 | 50 | 15 | 5.0 | 12.0 | 0.00 | 0.00 | 0.00 | 62 | 1025.6 |
| 20260502122120 | 51 | 16 | 3.0 | 6.0 | 0.00 | 0.00 | 0.00 | 62 | 1025.7 |
| 20260502121620 | 51 | 16 | 3.0 | 6.0 | 0.00 | 0.00 | 0.00 | 64 | 1025.7 |
| 20260502121120 | 50 | 13 | 3.0 | 12.0 | 0.00 | 0.00 | 0.00 | 65 | 1025.7 |
| 20260502120620 | 49 | 16 | 5.0 | 8.0 | 0.00 | 0.00 | 0.00 | 67 | 1025.7 |
| 20260502120120 | 49 | 14 | 5.0 | 9.0 | 0.00 | 0.00 | 0.00 | 64 | 1025.7 |
| 20260502115620 | 50 | 15 | 6.0 | 9.0 | 0.00 | 0.00 | 0.00 | 62 | 1025.8 |
| 20260502115120 | 49 | 15 | 4.0 | 10.0 | 0.00 | 0.00 | 0.00 | 63 | 1025.9 |
| 20260502114620 | 51 | 15 | 5.0 | 8.0 | 0.00 | 0.00 | 0.00 | 61 | 1026.0 |
| 20260502114120 | 52 | 16 | 3.0 | 6.0 | 0.00 | 0.00 | 0.00 | 58 | 1026.1 |
| 20260502113620 | 52 | 16 | 4.0 | 7.0 | 0.00 | 0.00 | 0.00 | 58 | 1026.1 |
| 20260502113120 | 53 | 16 | 3.0 | 6.0 | 0.00 | 0.00 | 0.00 | 60 | 1026.2 |
| 20260502112620 | 53 | 14 | 2.0 | 5.0 | 0.00 | 0.00 | 0.00 | 59 | 1026.2 |
| 20260502112120 | 52 | 18 | 2.0 | 3.0 | 0.00 | 0.00 | 0.00 | 58 | 1026.3 |
| 20260502111620 | 51 | 14 | 2.0 | 5.0 | 0.00 | 0.00 | 0.00 | 63 | 1026.4 |
| 20260502111120 | 51 | 14 | 2.0 | 5.0 | 0.00 | 0.00 | 0.00 | 60 | 1026.4 |
| 20260502110619 | 51 | 13 | 3.0 | 7.0 | 0.00 | 0.00 | 0.00 | 59 | 1026.5 |
| 20260502110120 | 52 | 15 | 3.0 | 5.0 | 0.00 | 0.00 | 0.00 | 58 | 1026.5 |
| 20260502105120 | 51 | 19 | 2.0 | 3.0 | 0.00 | 0.00 | 0.00 | 59 | 1026.6 |
| 20260502104619 | 51 | 11 | 3.0 | 5.0 | 0.00 | 0.00 | 0.00 | 61 | 1026.6 |
| 20260502104120 | 51 | 12 | 2.0 | 7.0 | 0.00 | 0.00 | 0.00 | 59 | 1026.8 |
| 20260502103620 | 51 | 15 | 2.0 | 3.0 | 0.00 | 0.00 | 0.00 | 59 | 1026.8 |
| 20260502103120 | 52 | 13 | 3.0 | 5.0 | 0.00 | 0.00 | 0.00 | 58 | 1026.8 |
| 20260502102620 | 51 | 13 | 1.0 | 5.0 | 0.00 | 0.00 | 0.00 | 59 | 1026.8 |
| 20260502102120 | 51 | 17 | 2.0 | 5.0 | 0.00 | 0.00 | 0.00 | 57 | 1026.9 |
| 20260502101620 | 51 | 15 | 3.0 | 5.0 | 0.00 | 0.00 | 0.00 | 59 | 1026.9 |
| 20260502101120 | 51 | 18 | 2.0 | 3.0 | 0.00 | 0.00 | 0.00 | 56 | 1026.8 |
| 20260502100620 | 52 | 22 | 2.0 | 3.0 | 0.00 | 0.00 | 0.00 | 58 | 1026.9 |
| 20260502100120 | 51 | 13 | 2.0 | 7.0 | 0.00 | 0.00 | 0.00 | 59 | 1027.0 |
| 20260502091120 | 50 | 4 | 2.0 | 3.0 | 0.00 | 0.00 | 0.00 | 55 | 1026.9 |
| 20260502090619 | 49 | 23 | 5.0 | 8.0 | 0.00 | 0.00 | 0.00 | 57 | 1027.0 |
| 20260502090120 | 50 | 25 | 2.0 | 3.0 | 0.00 | 0.00 | 0.00 | 57 | 1027.0 |
| 20260502071120 | 49 | 21 | 1.0 | 3.0 | 0.00 | 0.00 | 0.00 | 54 | 1027.6 |
| 20260502070620 | 48 | 18 | 2.0 | 5.0 | 0.00 | 0.00 | 0.00 | 55 | 1027.5 |
| 20260502070120 | 48 | 16 | 2.0 | 3.0 | 0.00 | 0.00 | 0.00 | 55 | 1027.6 |
| 20260502065120 | 48 | 21 | 1.0 | 3.0 | 0.00 | 0.00 | 0.00 | 56 | 1027.6 |
| 20260502064619 | 47 | 23 | 1.0 | 3.0 | 0.00 | 0.00 | 0.00 | 56 | 1027.6 |
| 20260502064122 | 47 | 19 | 2.0 | 5.0 | 0.00 | 0.00 | 0.00 | 56 | 1027.7 |
| 20260502063620 | 47 | 16 | 2.0 | 3.0 | 0.00 | 0.00 | 0.00 | 56 | 1027.6 |
| 20260502063119 | 46 | 13 | 2.0 | 5.0 | 0.00 | 0.00 | 0.00 | 56 | 1027.6 |
| 20260502062619 | 46 | 16 | 2.0 | 5.0 | 0.00 | 0.00 | 0.00 | 56 | 1027.7 |
| 20260502062120 | 46 | 15 | 2.0 | 3.0 | 0.00 | 0.00 | 0.00 | 57 | 1027.6 |
| 20260502061620 | 45 | 15 | 2.0 | 3.0 | 0.00 | 0.00 | 0.00 | 58 | 1027.6 |
| 20260502060620 | 45 | 15 | 3.0 | 5.0 | 0.00 | 0.00 | 0.00 | 58 | 1027.6 |
| 20260502060120 | 45 | 9 | 2.0 | 5.0 | 0.00 | 0.00 | 0.00 | 58 | 1027.7 |
| 20260502055619 | 45 | 8 | 1.0 | 3.0 | 0.00 | 0.00 | 0.00 | 58 | 1027.7 |
| 20260502055119 | 44 | 19 | 1.0 | 3.0 | 0.00 | 0.00 | 0.00 | 59 | 1027.8 |
| 20260502054619 | 43 | 11 | 2.0 | 5.0 | 0.00 | 0.00 | 0.00 | 61 | 1027.7 |
| 20260502054119 | 43 | 3 | 2.0 | 5.0 | 0.00 | 0.00 | 0.00 | 61 | 1027.7 |
| 20260502053619 | 42 | 20 | 2.0 | 3.0 | 0.00 | 0.00 | 0.00 | 62 | 1027.8 |
| 20260502053119 | 42 | 21 | 2.0 | 6.0 | 0.00 | 0.00 | 0.00 | 63 | 1027.8 |
| 20260502052620 | 41 | 19 | 3.0 | 7.0 | 0.00 | 0.00 | 0.00 | 64 | 1027.8 |
| 20260502052119 | 41 | 18 | 3.0 | 7.0 | 0.00 | 0.00 | 0.00 | 64 | 1027.8 |
| 20260502051120 | 41 | 15 | 3.0 | 7.0 | 0.00 | 0.00 | 0.00 | 64 | 1027.9 |
| 20260502050120 | 41 | 13 | 3.0 | 6.0 | 0.00 | 0.00 | 0.00 | 66 | 1028.0 |
| 20260502045119 | 40 | 15 | 3.0 | 6.0 | 0.00 | 0.00 | 0.00 | 67 | 1027.9 |
| 20260502044119 | 39 | 16 | 3.0 | 7.0 | 0.00 | 0.00 | 0.00 | 68 | 1027.9 |
| 20260502043619 | 39 | 18 | 3.0 | 6.0 | 0.00 | 0.00 | 0.00 | 68 | 1027.8 |
| 20260502043120 | 39 | 9 | 3.0 | 7.0 | 0.00 | 0.00 | 0.00 | 70 | 1027.8 |
| 20260502042619 | 38 | 18 | 3.0 | 6.0 | 0.00 | 0.00 | 0.00 | 70 | 1027.9 |
| 20260502042119 | 38 | 16 | 3.0 | 7.0 | 0.00 | 0.00 | 0.00 | 71 | 1027.8 |
| 20260502041120 | 37 | 16 | 3.0 | 8.0 | 0.00 | 0.00 | 0.00 | 71 | 1027.9 |
| 20260502040620 | 37 | 19 | 3.0 | 7.0 | 0.00 | 0.00 | 0.00 | 72 | 1027.9 |
| 20260502040119 | 37 | 20 | 3.0 | 7.0 | 0.00 | 0.00 | 0.00 | 72 | 1027.9 |
| 20260502035619 | 37 | 20 | 3.0 | 8.0 | 0.00 | 0.00 | 0.00 | 72 | 1027.9 |
| 20260502035120 | 37 | 18 | 3.0 | 6.0 | 0.00 | 0.00 | 0.00 | 71 | 1027.9 |
| 20260502034620 | 37 | 17 | 3.0 | 7.0 | 0.00 | 0.00 | 0.00 | 71 | 1027.9 |
| 20260502034119 | 37 | 19 | 3.0 | 7.0 | 0.00 | 0.00 | 0.00 | 70 | 1028.0 |
| 20260502033619 | 37 | 19 | 2.0 | 5.0 | 0.00 | 0.00 | 0.00 | 71 | 1028.0 |
| 20260502033119 | 37 | 18 | 3.0 | 6.0 | 0.00 | 0.00 | 0.00 | 70 | 1027.9 |
| 20260502032620 | 37 | 18 | 2.0 | 5.0 | 0.00 | 0.00 | 0.00 | 71 | 1027.9 |
| 20260502032119 | 37 | 13 | 2.0 | 5.0 | 0.00 | 0.00 | 0.00 | 71 | 1028.0 |
| 20260502031620 | 37 | 18 | 2.0 | 5.0 | 0.00 | 0.00 | 0.00 | 71 | 1027.9 |
| 20260502031119 | 37 | 18 | 3.0 | 6.0 | 0.00 | 0.00 | 0.00 | 71 | 1028.0 |
| 20260502030619 | 37 | 19 | 2.0 | 5.0 | 0.00 | 0.00 | 0.00 | 71 | 1028.1 |
| 20260502030119 | 37 | 21 | 2.0 | 6.0 | 0.00 | 0.00 | 0.00 | 71 | 1028.1 |
| 20260502025620 | 37 | 21 | 3.0 | 6.0 | 0.00 | 0.00 | 0.00 | 71 | 1028.2 |
| 20260502025119 | 37 | 18 | 3.0 | 5.0 | 0.00 | 0.00 | 0.00 | 72 | 1028.1 |
| 20260502024619 | 37 | 17 | 3.0 | 5.0 | 0.00 | 0.00 | 0.00 | 71 | 1028.3 |
| 20260502024119 | 37 | 21 | 2.0 | 5.0 | 0.00 | 0.00 | 0.00 | 71 | 1028.3 |
| 20260502023619 | 37 | 18 | 2.0 | 3.0 | 0.00 | 0.00 | 0.00 | 71 | 1028.3 |
| 20260502023119 | 37 | 21 | 1.0 | 3.0 | 0.00 | 0.00 | 0.00 | 70 | 1028.4 |
| 20260502022119 | 38 | 22 | 2.0 | 5.0 | 0.00 | 0.00 | 0.00 | 69 | 1028.4 |
| 20260502021619 | 38 | 21 | 2.0 | 5.0 | 0.00 | 0.00 | 0.00 | 69 | 1028.5 |
| 20260502021119 | 38 | 19 | 2.0 | 6.0 | 0.00 | 0.00 | 0.00 | 68 | 1028.6 |
| 20260502020619 | 38 | 18 | 2.0 | 3.0 | 0.00 | 0.00 | 0.00 | 67 | 1028.6 |
| 20260502020120 | 38 | 18 | 2.0 | 5.0 | 0.00 | 0.00 | 0.00 | 67 | 1028.6 |
| 20260502015619 | 38 | 17 | 2.0 | 3.0 | 0.00 | 0.00 | 0.00 | 66 | 1028.6 |
| 20260502015119 | 39 | 19 | 2.0 | 3.0 | 0.00 | 0.00 | 0.00 | 66 | 1028.6 |
| 20260502014619 | 39 | 21 | 3.0 | 5.0 | 0.00 | 0.00 | 0.00 | 65 | 1028.5 |
| 20260502014119 | 40 | 17 | 1.0 | 3.0 | 0.00 | 0.00 | 0.00 | 64 | 1028.5 |
| 20260502013619 | 40 | 18 | 2.0 | 3.0 | 0.00 | 0.00 | 0.00 | 63 | 1028.6 |
| 20260502013119 | 40 | 19 | 2.0 | 3.0 | 0.00 | 0.00 | 0.00 | 62 | 1028.6 |
| 20260502012621 | 40 | 19 | 1.0 | 3.0 | 0.00 | 0.00 | 0.00 | 63 | 1028.7 |
| 20260502012119 | 40 | 19 | 2.0 | 3.0 | 0.00 | 0.00 | 0.00 | 63 | 1028.8 |
| 20260502011119 | 40 | 19 | 2.0 | 3.0 | 0.00 | 0.00 | 0.00 | 63 | 1028.9 |
| 20260502010619 | 40 | 19 | 2.0 | 3.0 | 0.00 | 0.00 | 0.00 | 63 | 1028.9 |
| 20260502005619 | 40 | 18 | 2.0 | 3.0 | 0.00 | 0.00 | 0.00 | 63 | 1029.0 |
| 20260502005119 | 40 | 18 | 3.0 | 3.0 | 0.00 | 0.00 | 0.00 | 63 | 1029.0 |
| 20260502004619 | 40 | 18 | 2.0 | 3.0 | 0.00 | 0.00 | 0.00 | 62 | 1029.0 |
| 20260502004119 | 40 | 18 | 2.0 | 5.0 | 0.00 | 0.00 | 0.00 | 62 | 1029.0 |
| 20260502003619 | 40 | 17 | 3.0 | 5.0 | 0.00 | 0.00 | 0.00 | 62 | 1029.1 |
| 20260502003119 | 41 | 18 | 2.0 | 5.0 | 0.00 | 0.00 | 0.00 | 62 | 1029.1 |
| 20260502002619 | 41 | 19 | 3.0 | 5.0 | 0.00 | 0.00 | 0.00 | 62 | 1029.2 |
| 20260502001619 | 41 | 18 | 5.0 | 6.0 | 0.00 | 0.00 | 0.00 | 62 | 1029.3 |
| 20260502001119 | 41 | 17 | 3.0 | 6.0 | 0.00 | 0.00 | 0.00 | 62 | 1029.3 |
| 20260502000619 | 41 | 17 | 5.0 | 6.0 | 0.00 | 0.00 | 0.00 | 62 | 1029.3 |
| 20260501235619 | 41 | 19 | 2.0 | 3.0 | 0.00 | 0.00 | 0.00 | 61 | 1029.3 |
| 20260501235119 | 41 | 17 | 2.0 | 3.0 | 0.00 | 0.00 | 0.00 | 61 | 1029.4 |
| 20260501234119 | 41 | 15 | 4.0 | 6.0 | 0.00 | 0.00 | 0.00 | 60 | 1029.4 |
| 20260501233619 | 41 | 16 | 3.0 | 3.0 | 0.00 | 0.00 | 0.00 | 60 | 1029.5 |
| 20260501233119 | 41 | 17 | 3.0 | 5.0 | 0.00 | 0.00 | 0.00 | 60 | 1029.5 |
| 20260501232619 | 41 | 17 | 3.0 | 5.0 | 0.00 | 0.00 | 0.00 | 60 | 1029.5 |
| 20260501231619 | 41 | 17 | 2.0 | 3.0 | 0.00 | 0.00 | 0.00 | 60 | 1029.6 |
| 20260501230619 | 41 | 17 | 5.0 | 6.0 | 0.00 | 0.00 | 0.00 | 60 | 1029.7 |
| 20260501230119 | 41 | 16 | 2.0 | 3.0 | 0.00 | 0.00 | 0.00 | 61 | 1029.7 |
| 20260501225619 | 41 | 16 | 3.0 | 5.0 | 0.00 | 0.00 | 0.00 | 61 | 1029.8 |
| 20260501225119 | 41 | 17 | 2.0 | 3.0 | 0.00 | 0.00 | 0.00 | 65 | 1029.8 |
| 20260501224619 | 41 | 16 | 3.0 | 3.0 | 0.00 | 0.00 | 0.00 | 64 | 1029.8 |
| 20260501224119 | 41 | 15 | 3.0 | 5.0 | 0.00 | 0.00 | 0.00 | 63 | 1029.8 |
| 20260501223619 | 41 | 16 | 4.0 | 5.0 | 0.00 | 0.00 | 0.00 | 63 | 1029.8 |
| 20260501222619 | 41 | 18 | 2.0 | 3.0 | 0.00 | 0.00 | 0.00 | 61 | 1029.8 |
| 20260501222119 | 41 | 16 | 3.0 | 5.0 | 0.00 | 0.00 | 0.00 | 61 | 1029.8 |
| 20260501221619 | 41 | 18 | 2.0 | 5.0 | 0.00 | 0.00 | 0.00 | 62 | 1029.8 |
| 20260501221119 | 41 | 16 | 3.0 | 6.0 | 0.00 | 0.00 | 0.00 | 62 | 1029.8 |
| 20260501220619 | 41 | 16 | 3.0 | 5.0 | 0.00 | 0.00 | 0.00 | 62 | 1029.7 |
| 20260501220119 | 41 | 18 | 2.0 | 3.0 | 0.00 | 0.00 | 0.00 | 63 | 1029.7 |
| 20260501215619 | 41 | 17 | 3.0 | 5.0 | 0.00 | 0.00 | 0.00 | 63 | 1029.7 |
| 20260501215119 | 41 | 15 | 3.0 | 3.0 | 0.00 | 0.00 | 0.00 | 63 | 1029.7 |
| 20260501214619 | 41 | 16 | 2.0 | 3.0 | 0.00 | 0.00 | 0.00 | 64 | 1029.7 |
| 20260501214119 | 41 | 15 | 2.0 | 3.0 | 0.00 | 0.00 | 0.00 | 64 | 1029.7 |
| 20260501213619 | 41 | 15 | 2.0 | 3.0 | 0.00 | 0.00 | 0.00 | 64 | 1029.8 |
| 20260501213118 | 41 | 17 | 2.0 | 3.0 | 0.00 | 0.00 | 0.00 | 64 | 1029.8 |
| 20260501212618 | 41 | 16 | 3.0 | 5.0 | 0.00 | 0.00 | 0.00 | 64 | 1029.8 |
| 20260501212119 | 42 | 16 | 2.0 | 3.0 | 0.00 | 0.00 | 0.00 | 64 | 1029.9 |
| 20260501210619 | 42 | 16 | 3.0 | 3.0 | 0.00 | 0.00 | 0.00 | 64 | 1030.0 |
| 20260501205619 | 42 | 16 | 0.0 | 0.0 | 0.00 | 0.00 | 0.00 | 64 | 1029.9 |
| 20260501205119 | 42 | 16 | 0.0 | 0.0 | 0.00 | 0.00 | 0.00 | 63 | 1029.9 |
| 20260501204619 | 42 | 17 | 0.0 | 0.0 | 0.00 | 0.00 | 0.00 | 63 | 1029.9 |
| 20260501204119 | 42 | 17 | 0.0 | 1.0 | 0.00 | 0.00 | 0.00 | 63 | 1029.9 |
| 20260501203119 | 43 | 17 | 2.0 | 3.0 | 0.00 | 0.00 | 0.00 | 62 | 1029.7 |
| 20260501202619 | 43 | 17 | 3.0 | 5.0 | 0.00 | 0.00 | 0.00 | 62 | 1029.7 |
| 20260501202119 | 43 | 17 | 3.0 | 3.0 | 0.00 | 0.00 | 0.00 | 63 | 1029.7 |
| 20260501201119 | 43 | 17 | 3.0 | 5.0 | 0.00 | 0.00 | 0.00 | 63 | 1029.6 |
| 20260501200619 | 44 | 17 | 3.0 | 5.0 | 0.00 | 0.00 | 0.00 | 63 | 1029.6 |
| 20260501200119 | 44 | 17 | 5.0 | 6.0 | 0.00 | 0.00 | 0.00 | 63 | 1029.5 |
| 20260501195619 | 44 | 17 | 5.0 | 6.0 | 0.00 | 0.00 | 0.00 | 63 | 1029.5 |
| 20260501195119 | 44 | 14 | 5.0 | 7.0 | 0.00 | 0.00 | 0.00 | 64 | 1029.5 |
| 20260501194618 | 44 | 20 | 2.0 | 5.0 | 0.00 | 0.00 | 0.00 | 64 | 1029.3 |
| 20260501193619 | 44 | 18 | 0.0 | 2.0 | 0.00 | 0.00 | 0.00 | 64 | 1029.2 |
| 20260501193119 | 44 | 18 | 1.0 | 3.0 | 0.00 | 0.00 | 0.00 | 64 | 1029.1 |
| 20260501192119 | 44 | 18 | 1.0 | 3.0 | 0.00 | 0.00 | 0.00 | 65 | 1029.0 |
| 20260501191619 | 44 | 18 | 0.0 | 2.0 | 0.00 | 0.00 | 0.00 | 65 | 1029.1 |
| 20260501191118 | 44 | 19 | 1.0 | 2.0 | 0.00 | 0.00 | 0.00 | 65 | 1029.1 |
| 20260501190618 | 43 | 18 | 2.0 | 3.0 | 0.00 | 0.00 | 0.00 | 66 | 1029.0 |
| 20260501190119 | 43 | 19 | 2.0 | 3.0 | 0.00 | 0.00 | 0.00 | 66 | 1028.9 |
| 20260501185619 | 43 | 17 | 3.0 | 6.0 | 0.00 | 0.00 | 0.00 | 62 | 1029.0 |
| 20260501185119 | 43 | 0 | 1.0 | 3.0 | 0.00 | 0.00 | 0.00 | 66 | 1028.9 |
| 20260501184619 | 43 | 0 | 2.0 | 3.0 | 0.00 | 0.00 | 0.00 | 62 | 1028.8 |
| 20260501184119 | 43 | 0 | 3.0 | 6.0 | 0.00 | 0.00 | 0.00 | 64 | 1028.7 |
| 20260501183619 | 43 | 0 | 2.0 | 3.0 | 0.00 | 0.00 | 0.00 | 64 | 1028.6 |
| 20260501183119 | 43 | 0 | 1.0 | 2.0 | 0.00 | 0.00 | 0.00 | 61 | 1028.5 |
| 20260501182619 | 44 | 0 | 2.0 | 7.0 | 0.00 | 0.00 | 0.00 | 64 | 1028.5 |
| 20260501182119 | 43 | 1 | 3.0 | 7.0 | 0.00 | 0.00 | 0.00 | 65 | 1028.4 |